Location: Unspecified
(39.7738°N, 0.0000°E)
Time: 07:54:59
(UTC+00:00)

HEATHSAT - Visible Passes

Search period start: 04 April 2026 00:00
Search period end: 14 April 2026 00:00
Orbit: 778 x 789 km, 98.6° (Epoch: 29 March)

Date Brightness Start Highest point End Pass type
(mag) Time Alt. Az. Time Alt. Az. Time Alt. Az.
4 Apr 9.2 20:22:22 20° NE 20:22:22 20° NE 20:25:34 10° NNE visible
4 Apr 9.3 22:02:57 30° NW 22:02:57 30° NW 22:05:47 10° NNW visible
5 Apr 9.7 19:50:24 11° ENE 19:50:44 11° ENE 19:51:58 10° NE visible
5 Apr 8.6 21:30:58 43° N 21:30:58 43° N 21:34:27 10° NNW visible
6 Apr 8.5 20:59:00 37° NE 20:59:00 37° NE 21:02:44 10° N visible
6 Apr 10.1 22:39:35 17° WNW 22:39:35 17° WNW 22:41:19 10° NW visible
7 Apr 9.1 20:27:01 23° ENE 20:27:01 23° ENE 20:30:36 10° NNE visible
7 Apr 9.3 22:07:36 30° NW 22:07:36 30° NW 22:10:36 10° NNW visible
8 Apr 9.6 19:55:03 12° ENE 19:55:31 12° ENE 19:57:27 10° NE visible
8 Apr 8.5 21:35:37 47° NNW 21:35:37 47° NNW 21:39:19 10° NNW visible
9 Apr 8.3 21:03:39 42° NE 21:03:39 42° NE 21:07:39 10° N visible
9 Apr 10.1 22:44:13 16° WNW 22:44:13 16° WNW 22:46:00 10° NW visible
10 Apr 8.9 20:31:40 25° ENE 20:31:40 25° ENE 20:35:36 10° NNE visible
10 Apr 9.3 22:12:14 30° WNW 22:12:14 30° WNW 22:15:23 10° NNW visible
11 Apr 9.5 19:59:42 13° ENE 20:00:19 13° ENE 20:02:43 10° NNE visible
11 Apr 8.3 21:40:16 51° NNW 21:40:16 51° NNW 21:44:10 10° NNW visible
12 Apr 8.1 21:08:18 48° NE 21:08:18 48° NE 21:12:34 10° N visible
12 Apr 10.1 22:48:53 16° WNW 22:48:53 16° WNW 22:50:38 10° NW visible
13 Apr 8.8 20:36:19 27° ENE 20:36:19 27° ENE 20:40:35 10° N visible
13 Apr 9.3 22:16:54 30° WNW 22:16:54 30° WNW 22:20:10 10° NNW visible
